Regional Weather Roundup
Issued by NWS

Home | Current Version | Previous Version | Text Only | Print | Product List | Glossary On
Versions: 1 2 3 4 5 6 7 8 9 10 11 12 13 14 15 16 17 18 19 20 21 22 23 24 25 26 27 28 29 30 31 32 33 34 35 36 37 38 39 40 41 42 43 44 45 46 47 48 49 50
000
ASUS43 KTOP 200908
RWRKS

WEATHER ROUNDUP FOR KANSAS
NATIONAL WEATHER SERVICE GOODLAND KS
300 AM CST MON FEB 20 2017

NOTE:  "FAIR" INDICATES FEW OR NO CLOUDS BELOW 12,000 FEET WITH NO
SIGNIFICANT WEATHER AND/OR OBSTRUCTIONS TO VISIBILITY.

KSZ001>006-013>018-027>032-041>047-201000-
NORTHWEST KANSAS

CITY           SKY/WX    TMP DP  RH WIND       PRES   REMARKS
GOODLAND       CLOUDY    48  33  56 W18       29.71R
HAYS           MOCLDY    56  55  97 S14       29.71F FOG
HILL CITY      CLOUDY    54  50  86 S5        29.69R
RUSSELL        CLOUDY    58  56  93 S17       29.70F
$$

KSZ061>065-074>080-084>089-201000-
SOUTHWEST KANSAS

CITY           SKY/WX    TMP DP  RH WIND       PRES   REMARKS
DODGE CITY     CLOUDY    53  41  63 S10       29.74F
ELKHART          N/A     43  25  49 SW7         N/A
GARDEN CITY    CLOUDY    49  38  65 SE7       29.71F
GREAT BEND     CLOUDY    58  56  93 S12       29.74F
LIBERAL        CLOUDY    48  32  53 S10       29.74S
PRATT          FOG       53  53  99 S20       29.77R VSB 1
$$

KSZ066>073-081>083-090>101-201000-
SOUTHEAST KANSAS

CITY           SKY/WX    TMP DP  RH WIND       PRES   REMARKS
CHANUTE        CLOUDY    65  54  67 SE14      29.83F
COFFEYVILLE    CLOUDY    64  54  69 SE10      29.83F
HUTCHINSON     CLOUDY    57  57 100 SE10      29.73F
MEDICINE LODGE   N/A     57  56  96 S12       29.78R
NEWTON         FOG       56  56 100 SE14      29.75F VSB 1/2
PARSONS        CLOUDY    64  53  67 SE9       29.83F
WICHITA INTL   CLOUDY    57  55  93 S14       29.79R
WICHITA JABRA  CLOUDY    57  57 100 SE12      29.78F
WICHITA MCCONL CLOUDY    58  58  99 S14       29.79R
WINFIELD       LGT RAIN  58  57  97 S12       29.84R
$$

KSZ007>012-019>026-033>040-048>060-102>105-201000-
NORTHEAST KANSAS

CITY           SKY/WX    TMP DP  RH WIND       PRES   REMARKS
CONCORDIA      CLOUDY    59  58  96 S18       29.72F
EMPORIA        RAIN      58  57  97 SE9       29.82F FOG
LAWRENCE       CLOUDY    61  55  81 SE12      29.83S
MANHATTAN      LGT RAIN  60  58  92 VRB5      29.77S
MARYSVILLE     LGT RAIN  59  59 100 SE17G23   29.75F
OLATHE IND     CLOUDY    63  55  75 SE20G25   29.85F
OLATHE EXE     MOCLDY    60  56  86 S13       29.86S
SALINA         CLOUDY    60  58  92 SE9       29.73F
TOPEKA BILLARD TSTM      63  58  83 SW8       29.83R
TOPEKA FORBES  LGT RAIN  63  59  87 S12       29.83R
$$




USA.gov is the U.S. government's official web portal to all federal, state and local government web resources and services.